Starlink 6321

operational
NORAD ID: 57340 Int'l Des: 2023-099 Owner: SPXS Country: US Constellation: starlink
LEOCIRCULAR

关于 Starlink 6321

正在加载描述...

实时位置

正在加载3D地球...

即将过境

高度历史

Altitude vs Time

uPlot chart will show altitude changes over time

两行轨道根数

1 57340U 23099N 25350.96427630 .00000178 00000-0 28229-4 0 9997
2 57340 43.0046 338.3818 0001148 267.0938 92.9773 15.02536116133678
Epoch: Dec 16, 2025 • Age: 19 hours

当前状态

高度 565.9 km
速度 7.58 km/s
星下点 -28.36°S, 162.54°W
发射日期 Jul 16, 2023
运行时间 2.4 years
类型 internet

技术详情

分类 Payload
质量 305.00 kg
干质量 290.00 kg
总质量 305.00 kg
长度 0.20 m
直径 2.80 m
跨度 9.00 m
形状 Box + pan
制造商 SPXS
平台类型 Starlink
阶段状态 In Orbit
所有者/国家 SPXS/US

大型星座

Loading constellations...